Malmstrom AFB, MT

3:38 PM MST on December 06, 2016 (GMT -0700)
Malmstrom AFB

Weather History for KGFA - January, 2014

Change the Weather History Date:

Wednesday, January 29, 2014

  Actual Average (KGTF) Record (KGTF)
Temperature  
Mean Temperature 28 °F 26 °F  
Max Temperature 39 °F 36 °F 61 °F (1931)
Min Temperature 17 °F 16 °F -41 °F (1916)
Degree Days  
Heating Degree Days 37 39  
Month to date heating degree days 1155  
Since 1 July heating degree days 4372  
Cooling Degree Days 0 0  
Month to date cooling degree days 0  
Year to date cooling degree days 0  
Moisture  
Dew Point 25 °F    
Average Humidity 86    
Maximum Humidity 100    
Minimum Humidity 52    
Precipitation  
Precipitation 0.23 in 0.02 in 0.42 in (2014)
Month to date precipitation 0.48  
Year to date precipitation 0.48  
Snow  
Snow 0.00 in 0.30 in 5.50 in (2013)
Month to date snowfall 8.1  
Since 1 July snowfall 31.3  
Snow Depth 1.00 in    
Sea Level Pressure  
Sea Level Pressure 29.60 in    
Wind  
Wind Speed 13 mph (North)    
Max Wind Speed 22 mph    
Max Gust Speed 31 mph    
Visibility 3 miles    
Events Fog , Rain , Snow    
T = Trace of Precipitation, MM = Missing Value Source: NWS Daily Summary

Daily Weather History Graph

Daily Weather History Graph

Search for Another Location

Airport or City:

Trip Planner

Search our weather history database for the weather conditions in past years. The results will help you decide how hot, cold, wet, or windy it might be!

Date:

Astronomy

Jan. 29, 2014 Rise Set
Actual Time 7:54 AM MST 5:21 PM MST
Civil Twilight 7:21 AM MST 5:54 PM MST
Nautical Twilight 6:44 AM MST 6:32 PM MST
Astronomical Twilight 6:08 AM MST 7:08 PM MST
Moon 6:34 AM MST (1/29) 4:26 PM MST (1/29)
Length of Visible Light 10h 33m
Length of Day
9h 27m
Waning Crescent, 2% of the Moon is Illuminated
Jan 29
Waning Crescent
Jan 30
New
Feb 6
First Quarter
Feb 14
Full
Feb 22
Last Quarter

Hourly Weather History & Observations

Time (MST) Temp. Windchill Dew Point Humidity Pressure Visibility Wind Dir Wind Speed Gust Speed Precip Events Conditions
12:56 AM 37.0 °F 26.2 °F 21.0 °F 52% 29.90 in 10.0 mi SSW 21.9 mph - N/A   Clear
1:56 AM 37.0 °F 26.4 °F 23.0 °F 57% 29.89 in 10.0 mi SSW 20.7 mph 31.1 mph N/A   Clear
2:56 AM 37.0 °F 26.2 °F 24.1 °F 59% 29.88 in 10.0 mi SSW 21.9 mph 29.9 mph N/A   Clear
3:56 AM 37.0 °F 27.4 °F 24.1 °F 59% 29.86 in 10.0 mi SSW 17.3 mph - N/A   Clear
4:56 AM 37.0 °F 27.0 °F 24.1 °F 59% 29.85 in 10.0 mi SSW 18.4 mph 24.2 mph N/A   Clear
5:56 AM 39.0 °F 29.9 °F 25.0 °F 57% 29.83 in 10.0 mi SSW 17.3 mph - N/A   Clear
6:56 AM 37.0 °F 28.9 °F 26.1 °F 65% 29.79 in 10.0 mi SSW 12.7 mph - N/A   Clear
7:56 AM 39.0 °F 32.8 °F 26.1 °F 60% 29.76 in 10.0 mi SW 9.2 mph - N/A   Mostly Cloudy
8:56 AM 39.0 °F 32.8 °F 32.0 °F 76% 29.74 in 10.0 mi SW 9.2 mph - 0.00 in Rain Light Rain
9:29 AM 37.4 °F 31.4 °F 33.8 °F 87% 29.59 in 7.0 mi SSW 8.1 mph - 0.00 in Rain Light Rain
9:56 AM 36.0 °F 29.0 °F 33.1 °F 89% 29.72 in 6.0 mi South 9.2 mph - 0.02 in Rain Light Rain
10:56 AM 35.1 °F 28.6 °F 32.0 °F 89% 29.70 in 6.0 mi SW 8.1 mph - 0.04 in Rain Light Rain
11:56 AM 35.1 °F 30.1 °F 32.0 °F 89% 29.65 in 5.0 mi SW 5.8 mph - 0.03 in Rain Light Rain
12:04 PM 33.8 °F 29.6 °F 32.0 °F 93% 29.50 in 3.0 mi SW 4.6 mph - 0.01 in Snow Light Snow
12:13 PM 33.8 °F 29.6 °F 32.0 °F 93% 29.49 in 2.5 mi SW 4.6 mph - 0.02 in Snow Light Snow
12:35 PM 33.8 °F - 32.0 °F 93% 29.48 in 3.0 mi Calm Calm - 0.03 in Snow Light Snow
12:49 PM 33.8 °F 29.6 °F 30.2 °F 87% 29.46 in 1.8 mi NNW 4.6 mph - 0.04 in Snow Light Snow
12:56 PM 33.1 °F 28.7 °F 30.9 °F 92% 29.61 in 1.0 mi NNW 4.6 mph - 0.04 in Snow Light Snow
1:03 PM 32.0 °F 27.5 °F 30.2 °F 93% 29.46 in 0.8 mi NNW 4.6 mph - 0.01 in Snow Light Snow
1:12 PM 32.0 °F 26.4 °F 30.2 °F 93% 29.45 in 1.0 mi NNW 5.8 mph - 0.01 in Snow Light Snow
1:17 PM 32.0 °F 27.5 °F 30.2 °F 93% 29.45 in 0.8 mi NNW 4.6 mph - 0.01 in Snow Light Snow
1:33 PM 32.0 °F 24.8 °F 30.2 °F 93% 29.44 in 1.0 mi North 8.1 mph - 0.02 in Snow Light Snow
1:48 PM 32.0 °F 24.2 °F 30.2 °F 93% 29.44 in 1.0 mi North 9.2 mph - 0.03 in Snow Light Snow
1:56 PM 32.0 °F 24.8 °F 30.9 °F 96% 29.59 in 1.2 mi North 8.1 mph - 0.03 in Snow Light Snow
2:18 PM 30.2 °F 21.3 °F 30.2 °F 100% 29.43 in 1.0 mi North 10.4 mph - 0.01 in Snow Light Snow
2:56 PM 30.9 °F 23.5 °F 30.0 °F 96% 29.59 in 2.0 mi North 8.1 mph - 0.02 in Snow Light Snow
3:06 PM 30.2 °F 20.2 °F 28.4 °F 93% 29.43 in 5.0 mi North 12.7 mph - 0.00 in Snow Light Snow
3:28 PM 30.2 °F 20.8 °F 28.4 °F 93% 29.44 in 7.0 mi North 11.5 mph - 0.00 in   Overcast
3:56 PM 30.0 °F 21.1 °F 28.0 °F 92% 29.60 in 10.0 mi North 10.4 mph - 0.00 in   Overcast
4:28 PM 28.4 °F 18.5 °F 26.6 °F 93% 29.46 in 1.8 mi NNE 11.5 mph - 0.00 in Snow Light Snow
4:43 PM 28.4 °F 19.7 °F 26.6 °F 93% 29.46 in 0.8 mi North 9.2 mph - 0.00 in Snow Light Snow
4:51 PM 28.4 °F 19.7 °F 26.6 °F 93% 29.46 in 0.8 mi NNE 9.2 mph - 0.00 in Snow Light Snow
4:56 PM 28.0 °F 17.5 °F 26.1 °F 92% 29.62 in 0.8 mi NNE 12.7 mph - 0.00 in Snow Light Snow
5:07 PM 26.6 °F 15.7 °F 24.8 °F 93% 29.47 in 1.0 mi NNE 12.7 mph - 0.01 in Snow Light Snow
5:11 PM 26.6 °F 15.7 °F 24.8 °F 93% 29.47 in 1.0 mi NNE 12.7 mph - 0.01 in Snow Light Snow
5:28 PM 26.6 °F 15.7 °F 23.0 °F 86% 29.52 in 2.0 mi NNE 12.7 mph - 0.01 in Snow Light Snow
5:36 PM 26.6 °F 16.8 °F 23.0 °F 86% 29.53 in 3.0 mi NNE 10.4 mph - 0.01 in Snow Light Snow
5:44 PM 24.8 °F 15.3 °F 23.0 °F 93% 29.50 in 3.0 mi NNE 9.2 mph - 0.01 in Snow Light Snow
5:54 PM 24.8 °F 15.3 °F 23.0 °F 93% 29.47 in 2.0 mi NNE 9.2 mph - 0.01 in Snow Light Snow
5:56 PM 25.0 °F 14.8 °F 23.0 °F 92% 29.63 in 2.0 mi NNE 10.4 mph - 0.01 in Snow Light Snow
6:20 PM 24.8 °F 12.9 °F 21.2 °F 86% 29.48 in 1.2 mi North 13.8 mph - 0.00 in Snow Light Snow
6:56 PM 23.0 °F 11.1 °F 21.0 °F 92% 29.68 in 1.0 mi North 12.7 mph - 0.01 in Snow Light Snow
7:05 PM 23.0 °F 11.7 °F 19.4 °F 86% 29.56 in 1.2 mi North 11.5 mph - 0.00 in Snow Light Snow
7:14 PM 23.0 °F 9.6 °F 19.4 °F 86% 29.54 in 1.0 mi North 16.1 mph - 0.00 in Snow Light Snow
7:21 PM 21.2 °F 8.3 °F 19.4 °F 93% 29.51 in 0.8 mi North 13.8 mph - 0.00 in Snow Light Snow
7:37 PM 21.2 °F 8.3 °F 19.4 °F 93% 29.50 in 0.8 mi North 13.8 mph - 0.01 in Snow Light Snow
7:56 PM 21.9 °F 11.0 °F 19.0 °F 89% 29.68 in 0.5 mi North 10.4 mph - 0.01 in Fog , Snow Snow
8:19 PM 21.2 °F 9.5 °F 19.4 °F 93% 29.58 in 1.0 mi North 11.5 mph - 0.00 in Snow Light Snow
8:27 PM 21.2 °F 8.9 °F 19.4 °F 93% 29.58 in 1.2 mi North 12.7 mph - 0.00 in Snow Light Snow
8:36 PM 21.2 °F 10.1 °F 19.4 °F 93% 29.55 in 1.8 mi North 10.4 mph - 0.00 in Snow Light Snow
8:46 PM 21.2 °F 10.1 °F 17.6 °F 86% 29.54 in 1.5 mi North 10.4 mph - 0.00 in Snow Light Snow
8:56 PM 19.9 °F 7.3 °F 17.1 °F 89% 29.72 in 1.5 mi North 12.7 mph - 0.00 in Snow Light Snow
9:56 PM 19.0 °F 8.2 °F 16.0 °F 88% 29.79 in 2.0 mi North 9.2 mph - 0.01 in Snow Light Snow
10:09 PM 19.4 °F 6.6 °F 15.8 °F 86% 29.61 in 1.8 mi North 12.7 mph - 0.00 in Snow Light Snow
10:29 PM 19.4 °F 8.6 °F 15.8 °F 86% 29.65 in 1.0 mi North 9.2 mph - 0.00 in Snow Light Snow
10:56 PM 18.0 °F 5.4 °F 14.0 °F 84% 29.86 in 2.0 mi North 11.5 mph - 0.00 in Snow Light Snow
11:06 PM 17.6 °F 5.7 °F 15.8 °F 93% 29.66 in 1.5 mi North 10.4 mph - 0.00 in Snow Light Snow
11:56 PM 17.1 °F 5.0 °F 14.0 °F 88% 29.94 in 1.0 mi North 10.4 mph - 0.01 in Snow Light Snow